Вернуться в каталог

STARLINK-31695

АктивенСвязьVLEO
NORAD 59376·PAYLOAD·🇺🇸 United States

Запущен Apr 2, 2024 с Vandenberg Space Force Base

Loading…

Ближайшие Пролёты (ближайшие 24 часа)

TLE

СвежийSource: CelesTrak SupGP

Эпоха: Sep 15, 2026, 02:58 UTC

1 59376C 24062C   26258.12409722 -.00005914  00000+0 -17475-3 0  2589
2 59376  53.1567  92.7688 0001215  86.6069  30.2486 15.34389563    14

Отслеживайте STARLINK-31695 в реальном времени с AllMySat

Download on the App Store